Location: *
(51.5000°N, 0.1100°W)
Time: 07:16:21
(UTC+00:00)

Cosmos 1025 Rocket - Pass Details

Date: 12 August 2024
Orbit: 590 x 612 km, 82.5° (Epoch: 07 September)

Event Time Altitude Azimuth Distance (km) Brightness Sun altitude
Rises 02:50:57 0° 359° (N) 2,891 7.3 -14.5°
Reaches altitude 10° 02:53:40 10° 16° (NNE) 1,983 6.7 -14.3°
Maximum altitude 02:56:59 21° 65° (ENE) 1,411 5.8 -13.9°
Drops below altitude 10° 03:00:17 10° 114° (ESE) 1,974 5.9 -13.6°
Sets 03:02:59 0° 131° (SE) 2,873 6.5 -13.3°
